EW0608 Weather Reports


time (UTC)temp
C
wind
direction
speed
KPH
gust
KPH
rain 1hr
cm
rain 24hr
cm
rain mn
cm
humidity
%
barometer
mb
20260903193004 30 240 1.6 9.7 0.00 0.00 0.00 73 1013.5
20260903192904 30 165 0.0 4.8 0.00 0.00 0.00 72 1014.8
20260903192457 31 234 0.0 4.8 0.00 0.00 0.00 72 1015.0
20260903191905 30 234 1.6 8.0 0.00 0.00 0.00 70 1015.1
20260903191536 30 228 1.6 8.0 0.00 0.00 0.00 69 1013.8
20260903191336 31 250 1.6 8.0 0.00 0.00 0.00 69 1015.2
20260903190849 31 229 1.6 4.8 0.00 0.00 0.00 70 1015.3
20260903190342 31 101 1.6 9.7 0.00 0.00 0.00 71 1015.4
20260903190053 30 80 0.0 9.7 0.00 0.00 0.00 72 1014.1
20260903185852 30 80 1.6 9.7 0.00 0.00 0.00 72 1015.4
20260903185343 31 170 1.6 6.4 0.00 0.00 0.00 68 1015.5
20260903184856 31 115 3.2 6.4 0.00 0.00 0.00 69 1015.6
20260903184547 31 84 1.6 9.7 0.00 0.00 0.00 70 1014.4
20260903184346 31 84 3.2 9.7 0.00 0.00 0.00 71 1015.8
20260903183840 31 182 3.2 9.7 0.00 0.00 0.00 72 1015.8
20260903183353 30 135 3.2 6.4 0.00 0.00 0.00 76 1015.9
20260903183006 30 150 0.0 11.3 0.00 0.00 0.00 77 1014.6
20260903182905 30 150 1.6 11.3 0.00 0.00 0.00 76 1016.0
20260903182338 29 166 4.8 11.3 0.00 0.00 0.00 75 1016.1
20260903181850 29 109 1.6 8.0 0.00 0.00 0.00 77 1016.1
20260903181551 28 178 0.0 8.0 0.00 0.00 0.00 78 1014.8
20260903181342 28 344 1.6 4.8 0.00 0.00 0.00 76 1016.1
20260903180344 28 126 1.6 6.4 0.00 0.00 0.00 81 1016.2
20260903180034 27 169 1.6 9.7 0.00 0.00 0.00 83 1015.1
20260903175910 27 185 3.2 9.7 0.00 0.00 0.00 82 1016.3
20260903175345 28 218 1.6 4.8 0.00 0.00 0.00 81 1016.5
20260903174838 28 115 1.6 8.0 0.00 0.00 0.00 85 1016.6
20260903174549 27 93 1.6 8.0 0.00 0.00 0.00 86 1015.4
20260903174348 27 93 1.6 8.0 0.00 0.00 0.00 85 1016.7
20260903173936 27 31 1.6 8.0 0.00 0.00 0.00 86 1016.7
20260903173348 26 143 3.2 6.4 0.00 0.00 0.00 86 1016.9
20260903173106 26 238 0.0 6.4 0.00 0.00 0.00 85 1015.6
20260903172859 26 159 1.6 6.4 0.00 0.00 0.00 87 1016.9
20260903172351 26 243 1.6 6.4 0.00 0.00 0.00 90 1017.0
20260903171904 25 169 0.0 3.2 0.00 0.00 0.00 92 1017.4
20260903171556 24 169 0.0 3.2 0.00 0.00 0.00 91 1016.2
20260903171354 24 169 0.0 3.2 0.00 0.00 0.00 90 1017.6
20260903170343 25 46 1.6 6.4 0.00 0.00 0.00 90 1017.5
20260903170021 25 145 3.2 6.4 0.00 0.00 0.00 91 1016.4
20260903165913 25 145 3.2 6.4 0.00 0.00 0.00 91 1017.7
20260903165344 24 144 0.0 3.2 0.00 0.00 0.00 93 1017.8
20260903164857 23 237 0.0 3.2 0.00 0.00 0.00 94 1018.0
20260903164551 23 237 0.0 0.0 0.00 0.00 0.00 95 1016.8
20260903163843 23 237 0.0 0.0 0.00 0.00 0.00 95 1018.0
20260903163042 23 237 0.0 0.0 0.00 0.00 0.00 94 1017.0
20260903162352 23 237 0.0 0.0 0.00 0.00 0.00 94 1018.5
20260903161844 23 238 0.0 0.0 0.00 0.00 0.00 94 1018.4
20260903161550 23 238 0.0 0.0 0.00 0.00 0.00 94 1016.7
20260903161337 23 238 0.0 0.0 0.00 0.00 0.00 94 1018.1
20260903160850 23 238 0.0 0.0 0.00 0.00 0.00 94 1018.5
20260903160344 23 238 0.0 0.0 0.00 0.00 0.00 94 1018.6
20260903160053 23 238 0.0 0.0 0.00 0.00 0.00 94 1017.4
20260903155852 23 238 0.0 0.0 0.00 0.00 0.00 94 1018.9
20260903155344 23 238 0.0 0.0 0.00 0.00 0.00 94 1019.1
20260903154857 23 238 0.0 0.0 0.00 0.00 0.00 94 1019.1
20260903154555 22 238 0.0 0.0 0.00 0.00 0.00 94 1017.8
20260903154349 23 238 0.0 0.0 0.00 0.00 0.00 94 1019.2
20260903153841 23 238 0.0 0.0 0.00 0.00 0.00 94 1019.0
20260903153339 23 238 0.0 0.0 0.00 0.00 0.00 94 1018.8
20260903153054 22 238 0.0 0.0 0.00 0.00 0.00 94 1017.3
20260903152853 23 238 0.0 0.0 0.00 0.00 0.00 94 1018.5
20260903152407 23 238 0.0 0.0 0.00 0.00 0.00 94 1018.7
20260903151857 22 238 0.0 4.8 0.00 0.00 0.00 94 1018.9
20260903151552 22 238 0.0 4.8 0.00 0.00 0.00 94 1017.5
20260903151349 22 238 0.0 4.8 0.00 0.00 0.00 94 1018.9
20260903150843 22 238 0.0 0.0 0.00 0.00 0.00 94 1018.9
20260903150356 22 238 0.0 0.0 0.00 0.00 0.00 95 1018.7
20260903150046 22 238 0.0 0.0 0.00 0.00 0.00 94 1017.4
20260903145845 22 238 0.0 0.0 0.00 0.00 0.00 95 1018.8
20260903145358 22 238 0.0 0.0 0.00 0.00 0.00 95 1019.1
20260903144555 21 123 0.0 0.0 0.00 0.00 0.00 94 1018.0
20260903144354 22 123 0.0 0.0 0.00 0.00 0.00 94 1019.2
20260903143907 22 123 0.0 14.5 0.00 0.00 0.00 94 1019.2
20260903143338 22 57 0.0 14.5 0.00 0.00 0.00 93 1019.2
20260903143012 22 57 1.6 14.5 0.00 0.00 0.00 94 1018.1
20260903142912 22 93 1.6 12.9 0.00 0.00 0.00 94 1019.5
20260903142343 22 146 0.0 0.0 0.00 0.00 0.00 93 1018.6
20260903141836 22 146 0.0 1.6 0.00 0.00 0.00 92 1018.0
20260903141550 21 146 0.0 4.8 0.00 0.00 0.00 92 1016.5
20260903141349 22 146 0.0 8.0 0.00 0.00 0.00 92 1017.9
20260903140843 22 120 1.6 8.0 0.00 0.00 0.00 92 1017.7
20260903140358 22 254 4.8 11.3 0.00 0.00 0.00 91 1017.9
20260903140043 22 109 4.8 11.3 0.00 0.00 0.00 91 1016.8
20260903135929 22 69 4.8 11.3 0.00 0.00 0.00 91 1018.3
20260903134546 22 171 0.0 0.0 0.00 0.00 0.00 90 1016.9
20260903133040 22 70 0.0 0.0 0.00 0.00 0.00 91 1016.9
20260903131538 22 80 0.0 0.0 0.00 0.00 0.00 94 1017.2
20260903130036 21 80 0.0 0.0 0.00 0.00 0.00 95 1017.0
20260903124535 21 80 0.0 0.0 0.00 0.00 0.00 95 1017.1
20260903123038 21 80 0.0 0.0 0.00 0.00 0.00 95 1017.4
20260903121535 21 225 0.0 0.0 0.00 0.00 0.00 95 1017.4
20260903120036 21 224 0.0 0.0 0.00 0.00 0.00 95 1017.7
20260903114552 21 224 0.0 0.0 0.00 0.00 0.00 95 1017.9
20260903113031 21 74 0.0 0.0 0.00 0.00 0.00 95 1017.5
20260903111530 20 74 0.0 0.0 0.00 0.00 0.00 95 1017.4
20260903110028 20 74 0.0 3.2 0.00 0.00 0.00 95 1017.1
20260903104626 20 68 0.0 1.6 0.00 0.00 0.00 94 1016.7
20260903103025 20 63 0.0 0.0 0.00 0.00 0.00 95 1016.3
20260903101520 20 5 0.0 0.0 0.00 0.00 0.00 94 1016.0
20260903100029 20 5 0.0 0.0 0.00 0.00 0.00 94 1015.6
20260903094516 20 5 0.0 0.0 0.00 0.00 0.00 94 1015.2
20260903093036 20 5 0.0 0.0 0.00 0.00 0.00 94 1014.9
20260903091514 20 5 0.0 0.0 0.00 0.00 0.00 94 1014.9
20260903090014 20 5 0.0 0.0 0.00 0.00 0.00 94 1015.0
20260903084526 20 5 0.0 0.0 0.00 0.00 0.00 94 1015.0
20260903083012 20 5 0.0 0.0 0.00 0.00 0.00 94 1014.9
20260903081515 20 5 0.0 0.0 0.00 0.00 0.00 94 1014.7
20260903080009 20 5 0.0 0.0 0.00 0.00 0.00 94 1014.7
20260903074509 20 5 0.0 0.0 0.00 0.00 0.00 94 1014.8
20260903073009 20 5 0.0 0.0 0.00 0.00 0.00 94 1014.7
20260903071514 20 5 0.0 0.0 0.00 0.00 0.00 94 1014.8
20260903070006 20 5 0.0 0.0 0.00 0.00 0.00 94 1014.8
20260903064506 20 5 0.0 0.0 0.00 0.00 0.00 94 1014.8
20260903063005 21 5 0.0 0.0 0.00 0.00 0.00 94 1014.7
20260903061503 21 5 0.0 0.0 0.00 0.00 0.00 94 1014.6
20260903060001 21 5 0.0 0.0 0.00 0.00 0.00 93 1014.8
20260903054559 21 5 0.0 0.0 0.00 0.00 0.00 94 1014.7
20260903053101 21 5 0.0 0.0 0.00 0.00 0.00 93 1014.7
20260903051601 21 5 0.0 0.0 0.00 0.00 0.00 93 1014.8
20260903051349 21 5 0.0 0.0 0.00 0.00 0.00 93 1016.3
20260903050841 21 5 0.0 0.0 0.00 0.00 0.00 93 1016.2
20260903050356 21 5 0.0 0.0 0.00 0.00 0.00 93 1016.2
20260903050004 21 5 0.0 0.0 0.00 0.00 0.00 93 1014.8
20260903045903 22 5 0.0 0.0 0.00 0.00 0.00 93 1016.2
20260903045415 22 5 0.0 0.0 0.00 0.00 0.00 93 1016.2
20260903044848 22 5 0.0 0.0 0.00 0.00 0.00 93 1016.3
20260903044539 21 5 0.0 0.0 0.00 0.00 0.00 93 1015.0
20260903044439 22 5 0.0 0.0 0.00 0.00 0.00 93 1016.3
20260903043847 22 5 0.0 0.0 0.00 0.00 0.00 93 1016.4
20260903043359 22 5 0.0 0.0 0.00 0.00 0.00 93 1016.3
20260903043015 21 5 0.0 0.0 0.00 0.00 0.00 93 1014.9
20260903042911 22 5 0.0 0.0 0.00 0.00 0.00 93 1016.4
20260903042342 22 5 0.0 0.0 0.00 0.00 0.00 93 1016.3
20260903041855 22 5 0.0 0.0 0.00 0.00 0.00 93 1016.4
20260903041548 22 5 0.0 0.0 0.00 0.00 0.00 93 1015.1
20260903041347 22 5 0.0 0.0 0.00 0.00 0.00 93 1016.4
20260903040841 22 5 0.0 0.0 0.00 0.00 0.00 93 1016.4
20260903040354 22 5 0.0 0.0 0.00 0.00 0.00 92 1016.5
20260903040008 22 5 0.0 0.0 0.00 0.00 0.00 92 1015.2
20260903035904 22 5 0.0 0.0 0.00 0.00 0.00 92 1016.6
20260903035356 22 5 0.0 0.0 0.00 0.00 0.00 92 1016.6
20260903034908 22 5 0.0 0.0 0.00 0.00 0.00 92 1016.6
20260903034540 22 5 0.0 0.0 0.00 0.00 0.00 92 1015.3
20260903034340 22 5 0.0 0.0 0.00 0.00 0.00 92 1016.5
20260903033854 22 5 0.0 0.0 0.00 0.00 0.00 92 1016.4
20260903033346 22 5 0.0 0.0 0.00 0.00 0.00 92 1016.4
20260903033042 22 5 0.0 0.0 0.00 0.00 0.00 92 1015.1
20260903032840 22 5 0.0 0.0 0.00 0.00 0.00 92 1016.4
20260903032412 22 5 0.0 0.0 0.00 0.00 0.00 92 1016.4
20260903031842 22 5 0.0 0.0 0.00 0.00 0.00 92 1016.4
20260903031537 22 5 0.0 0.0 0.00 0.00 0.00 92 1015.0
20260903031335 22 5 0.0 0.0 0.00 0.00 0.00 92 1016.4
20260903030849 22 5 0.0 0.0 0.00 0.00 0.00 92 1016.4
20260903030342 22 5 0.0 0.0 0.00 0.00 0.00 92 1016.5
20260903030053 22 5 0.0 0.0 0.00 0.00 0.00 91 1015.2
20260903025852 23 5 0.0 0.0 0.00 0.00 0.00 91 1016.5
20260903025345 23 5 0.0 0.0 0.00 0.00 0.00 91 1016.4
20260903024841 23 5 0.0 0.0 0.00 0.00 0.00 91 1016.5
20260903024554 22 5 0.0 0.0 0.00 0.00 0.00 91 1015.1
20260903024354 23 5 0.0 0.0 0.00 0.00 0.00 91 1016.4
20260903023846 23 5 0.0 0.0 0.00 0.00 0.00 91 1016.4
20260903023339 23 5 0.0 0.0 0.00 0.00 0.00 91 1016.4
20260903023051 23 5 0.0 0.0 0.00 0.00 0.00 91 1015.1
20260903022851 23 5 0.0 0.0 0.00 0.00 0.00 91 1016.4
20260903021854 23 5 0.0 0.0 0.00 0.00 0.00 90 1016.3
20260903021548 23 5 0.0 0.0 0.00 0.00 0.00 90 1015.1
20260903021348 23 5 0.0 0.0 0.00 0.00 0.00 90 1016.4
20260903020356 23 5 0.0 0.0 0.00 0.00 0.00 90 1016.3
20260903020048 23 5 0.0 0.0 0.00 0.00 0.00 90 1015.0
20260903015845 23 5 0.0 0.0 0.00 0.00 0.00 90 1016.3
20260903015337 23 5 0.0 0.0 0.00 0.00 0.00 90 1016.2
20260903014910 23 5 0.0 0.0 0.00 0.00 0.00 89 1016.2
20260903014554 23 5 0.0 0.0 0.00 0.00 0.00 89 1014.9
20260903014341 23 5 0.0 0.0 0.00 0.00 0.00 89 1016.3
20260903013854 23 5 0.0 0.0 0.00 0.00 0.00 89 1016.5
20260903013348 24 5 0.0 0.0 0.00 0.00 0.00 89 1016.5
20260903013042 23 5 0.0 0.0 0.00 0.00 0.00 88 1015.2
20260903012841 24 5 0.0 0.0 0.00 0.00 0.00 88 1016.5
20260903012354 24 5 0.0 0.0 0.00 0.00 0.00 88 1016.5
20260903011847 24 5 0.0 0.0 0.00 0.00 0.00 88 1016.5
20260903011541 24 5 0.0 0.0 0.00 0.00 0.00 88 1015.1
20260903011341 24 5 0.0 0.0 0.00 0.00 0.00 88 1016.6
20260903010854 24 5 526.3 526.3 0.00 0.00 0.00 88 1016.2
20260903010349 24 5 0.0 0.0 0.00 0.00 0.00 88 1016.4
20260903010040 24 5 0.0 0.0 0.00 0.00 0.00 88 1015.1
20260903005939 24 5 0.0 0.0 0.00 0.00 0.00 88 1016.5
20260903005406 24 5 0.0 0.0 0.00 0.00 0.00 88 1016.5
20260903004550 24 5 0.0 0.0 0.00 0.00 0.00 89 1015.2
20260903004349 25 5 0.0 0.0 0.00 0.00 0.00 88 1016.5
20260903003839 25 5 0.0 0.0 0.00 0.00 0.00 88 1016.7
20260903003352 25 5 0.0 0.0 0.00 0.00 0.00 88 1016.7
20260903003049 24 5 0.0 0.0 0.00 0.00 0.00 88 1015.3
20260903002359 25 5 0.0 1.6 0.00 0.00 0.00 88 1016.7
20260903001851 25 5 0.0 3.2 0.00 0.00 0.00 88 1016.7
20260903001545 24 5 0.0 3.2 0.00 0.00 0.00 88 1015.3
20260903001343 25 5 1.6 3.2 0.00 0.00 0.00 88 1016.7
20260903000836 25 5 0.0 3.2 0.00 0.00 0.00 88 1016.7
20260903000349 25 5 1.6 3.2 0.00 0.00 0.00 88 1016.7
20260903000038 25 5 0.0 1.6 0.00 0.00 0.00 88 1015.4
20260902235838 25 5 0.0 0.0 0.00 0.00 0.00 88 1016.8
20260902235350 25 5 0.0 0.0 0.00 0.00 0.00 87 1016.8
20260902234843 25 5 0.0 0.0 0.00 0.00 0.00 87 1017.0
20260902234538 25 5 0.0 0.0 0.00 0.00 0.00 87 1015.6
20260902234337 25 5 0.0 0.0 0.00 0.00 0.00 87 1017.0
20260902233851 25 5 0.0 0.0 0.00 0.00 0.00 87 1016.8
20260902233343 26 5 0.0 1.6 0.00 0.00 0.00 86 1016.7
20260902233034 25 5 0.0 3.2 0.00 0.00 0.00 85 1015.3
20260902232341 26 5 1.6 3.2 0.00 0.00 0.00 85 1016.8
20260902231854 26 263 0.0 0.0 0.00 0.00 0.00 86 1016.7
20260902231511 26 263 0.0 0.0 0.00 0.00 0.00 85 1015.2
20260902231407 26 263 0.0 0.0 0.00 0.00 0.00 85 1016.6
20260902230837 26 263 0.0 3.2 0.00 0.00 0.00 85 1016.7
20260902230350 26 263 0.0 3.2 0.00 0.00 0.00 83 1016.6
20260902230042 26 263 0.0 3.2 0.00 0.00 0.00 85 1015.2
20260902225840 26 263 0.0 3.2 0.00 0.00 0.00 85 1016.6
20260902225352 26 263 0.0 1.6 0.00 0.00 0.00 85 1016.8
20260902224843 26 263 0.0 4.8 0.00 0.00 0.00 84 1016.7
20260902224557 26 263 0.0 4.8 0.00 0.00 0.00 84 1015.2
20260902224355 26 263 1.6 4.8 0.00 0.00 0.00 85 1016.6
20260902223848 27 55 0.0 0.0 0.00 0.00 0.00 84 1016.6
20260902223345 27 55 0.0 0.0 0.00 0.00 0.00 82 1016.5
20260902223115 27 55 0.0 0.0 0.00 0.00 0.00 83 1015.1
20260902222858 27 55 0.0 0.0 0.00 0.00 0.00 83 1016.5
20260902222350 27 55 0.0 0.0 0.00 0.00 0.00 81 1016.4
20260902221843 27 55 0.0 0.0 0.00 0.00 0.00 82 1016.3
20260902221558 27 55 0.0 0.0 0.00 0.00 0.00 84 1015.0
20260902221356 27 55 0.0 1.6 0.00 0.00 0.00 83 1016.4
20260902220847 27 55 0.0 1.6 0.00 0.00 0.00 81 1016.3
20260902220342 27 55 0.0 3.2 0.00 0.00 0.00 81 1016.2
20260902220012 27 55 0.0 3.2 0.00 0.00 0.00 80 1014.7
20260902215851 27 55 0.0 4.8 0.00 0.00 0.00 81 1016.2
20260902215342 28 55 1.6 4.8 0.00 0.00 0.00 80 1016.2
20260902214955 27 58 0.0 1.6 0.00 0.00 0.00 80 1016.2
20260902214544 27 260 0.0 0.0 0.00 0.00 0.00 80 1014.8
20260902214342 27 260 0.0 0.0 0.00 0.00 0.00 81 1016.2
20260902213855 28 57 0.0 4.8 0.00 0.00 0.00 79 1016.4
20260902213347 28 57 1.6 4.8 0.00 0.00 0.00 78 1016.4
20260902213041 27 66 0.0 0.0 0.00 0.00 0.00 80 1015.1
20260902212841 28 66 0.0 3.2 0.00 0.00 0.00 79 1016.5
20260902212353 28 93 0.0 6.4 0.00 0.00 0.00 79 1016.4
20260902211847 28 245 1.6 6.4 0.00 0.00 0.00 79 1016.5
20260902211540 27 73 0.0 6.4 0.00 0.00 0.00 80 1015.2
20260902211339 28 73 0.0 6.4 0.00 0.00 0.00 81 1016.6
20260902210853 27 37 3.2 4.8 0.00 0.00 0.00 82 1016.7
20260902210346 28 238 0.0 6.4 0.00 0.00 0.00 80 1016.8
20260902205856 27 238 1.6 0.0 0.00 0.00 0.00 79 1016.3
20260902205346 27 30 0.0 6.4 0.00 0.00 0.00 79 1016.8
20260902204839 27 30 3.2 6.4 0.00 0.00 0.00 79 1017.0
20260902204554 27 40 1.6 4.8 0.00 0.00 0.00 79 1015.6
20260902204352 27 53 1.6 4.8 0.00 0.00 0.00 80 1017.0
20260902203842 28 22 1.6 6.4 0.00 0.00 0.00 81 1016.9
20260902203355 27 288 3.2 6.4 0.00 0.00 0.00 79 1016.8
20260902203050 27 231 0.0 6.4 0.00 0.00 0.00 78 1015.4
20260902202848 27 94 1.6 6.4 0.00 0.00 0.00 78 1016.9
20260902202343 28 291 3.2 6.4 0.00 0.00 0.00 80 1017.0
20260902201835 27 5 1.6 4.8 0.00 0.00 0.00 80 1016.9
20260902201509 27 271 0.0 4.8 0.00 0.00 0.00 79 1015.4
20260902201410 28 311 1.6 4.8 0.00 0.00 0.00 79 1016.8
20260902200841 28 347 1.6 9.7 0.00 0.00 0.00 80 1017.0
20260902200339 28 252 3.2 9.7 0.00 0.00 0.00 78 1017.2
20260902200051 27 221 1.6 6.4 0.00 0.00 0.00 79 1015.7
20260902195848 28 288 1.6 6.4 0.00 0.00 0.00 79 1017.2
20260902195341 28 23 3.2 6.4 0.00 0.00 0.00 77 1017.2
20260902194853 28 136 1.6 6.4 0.00 0.00 0.00 76 1017.0
20260902194547 28 9 0.0 4.8 0.00 0.00 0.00 75 1015.5
20260902194346 28 79 1.6 4.8 0.00 0.00 0.00 78 1016.9
20260902193836 28 225 526.3 526.3 0.00 0.00 0.00 78 1016.5
20260902193350 27 304 1.6 3.2 0.00 0.00 0.00 80 1016.9